Location: Rounton
(54.4000°N, 1.3500°W)
Time: 15:09:48
(UTC+00:00)

Transit 2A - Pass Details

Date: 03 December 2021
Orbit: 591 x 967 km, 66.7° (Epoch: 21 January)

Event Time Altitude Azimuth Distance (km) Brightness Sun altitude
Rises 09:34:52 0° 316° (NW) 3,658 8.8 7.7°
Reaches altitude 10° 09:37:38 10° 309° (NW) 2,716 8.3 7.9°
Maximum altitude 09:43:20 35° 246° (WSW) 1,497 7.6 8.4°
Drops below altitude 10° 09:48:53 10° 183° (S) 2,631 9.9 8.8°
Sets 09:51:32 0° 175° (S) 3,529 10.8 9.0°
